{"data":{"norad_id":64953,"epoch":"2026-05-25T03:25:08.396256Z","epoch_age_seconds":55951,"freshness":"FRESH","line1":"1 64953U 25158X   26145.14245829  .00011747  00000+0  81691-3 0  9998","line2":"2 64953  97.4499   9.1257 0002611  92.8443 267.3083 15.05644845 46860","mean_motion":15.05644845,"eccentricity":0.0002611,"inclination_deg":97.4499,"raan_deg":9.1257,"arg_perigee_deg":92.8443,"mean_anomaly_deg":267.3083,"bstar":0.00081691,"rev_number":4686,"period_min":95.640084365314,"perigee_km":547.71815347399,"apogee_km":551.33577959731,"semimajor_km":6927.6639665357,"source":"CELESTRAK","updated_at":"2026-05-25T13:38:20.635816Z"}}